Location: Ciserano
(45.5833°N, 9.6000°E)
Time: 05:11:22
(UTC+00:00)

NOSS 3-2 (C) - Pass Details

Date: 29 November 2020
Orbit: 789 x 1424 km, 63.4° (Epoch: 09 January)

Event Time Altitude Azimuth Distance (km) Brightness Sun altitude
Exits shadow 04:00:11 54° 259° (W) 1,550 4.1 -27.2°
Maximum altitude 04:00:55 56° 240° (WSW) 1,537 4.1 -27.1°
Drops below altitude 10° 04:09:12 10° 166° (SSE) 3,473 6.6 -25.7°
Sets 04:12:15 0° 162° (SSE) 4,475 7.2 -25.1°
